TITAN 3C TRANSTAGE DEB, 26778

Orbit data source: Space-Track

TITAN 3C TRANSTAGE DEB, 26778 is space debris in HEO originally from a launch on Tue, 21 Dec 1965 UTC launched from the Air Force Eastern Test Range (AFETR). Debris objects in space refer to the collection of defunct objects orbiting the Earth. Examples of debris include non-operational satellites, rocket bodies, and fragments generated from explosions, collisions, or faulty payload assembly.

Loading next visibility...
Identifier
26778, 1965-108AW
Orbit
HEO
Country
Flag of USUS
Related business
Manufacturer
Unknown
Mission
Spacecraft
Bus & Motor
Unknown
Mass
Unknown
Launch date (UTC)
1965-12-21 (60 years ago)
Launch vehicle
Unknown
Launch site
Air Force Eastern Test Range (AFETR)
Object type
Payload
Rocket body
Debris
Shape & HBR
Unknown shape, 0.2 m
Radar Cross Section
Medium (>0.1 m² and <1 m²)

Expand to show TLE details & history
Last TLE update: 6 days ago

TLE from 6 days ago
0 TITAN 3C TRANSTAGE DEB
1 26778U 65108AW  25337.24270443  .00000532  00000-0  69210-2 0  9996
2 26778  27.4457 152.5734 6816426 106.4976   9.1319  2.65440696107658
Epoch: 2025-12-03T05:49Z
TLE epoch observation values (Epoch: 2025-12-03T05:49:29.662Z)
Latitude
7.38911°
Longitude
158.50608°
Altitude
2,226.224 km
Speed
8.635 km/s
True Right ascension
21h 12m 47s
True Declination
7° 21' 10"
Sunlit
Object was in daylight at epoch
Visualization orbit readout
Latitude
Unknown
Longitude
Unknown
Altitude
Unknown
Speed
Unknown
Apparent Right ascension
Unknown
Apparent Declination
Unknown
Sunlit
N/A
Visualization observer readout
Local Sidereal Time
03:37:11
Azimuth
Unknown
Elevation
Unknown
Doppler factor
Unknown
Orbital elements
Apogee altitude
30,680.775 km
Perigee altitude
637.61 km
Semi-major axis
22,037.33 km
Eccentricity
0.68164
Inclination
27.4457°
RAAN
152.5734°
Arg. of periapsis
106.4976°
True anomaly
57.12258°
Mean anomaly
9.1319°
Eccentric anomaly
26.64925°
Mean motion
0.66344 °/min
Orbital period
542.62 mins
BSTAR
0.006921
Loading maneuver chart data...
Computing Atmospheric mass density...

Documentation

Showing up to 5 results
|